Creek Data

    Home     View Charts     View Raw Data     Messages

ID Distance Battery Voltage Battery Current Internal Temp Internal Humidity External Temp Solar Input rssi snr Time Stamp Record
67524 13.8 3.61 -5 56 52 56 0 -71 8 02/28/2026 01:30 AM 50368
67523 13.7 3.60 -5 56 52 56 0.1 -71 8 02/28/2026 01:15 AM 50367
67522 13.7 3.61 -5 56 52 56 0.1 -71 8 02/28/2026 01:00 AM 50366
67521 13.7 3.60 -5 56 52 58 0.1 -71 8 02/28/2026 12:45 AM 50365
67520 13.7 3.60 -5 56 53 56 0 -71 8 02/28/2026 12:30 AM 50364
67519 13.7 3.60 -5 56 53 56 0 -71 8 02/28/2026 12:15 AM 50363
67518 13.7 3.77 -5 56 53 56 0.1 -71 9 02/28/2026 12:00 AM 50362
67517 13.7 3.77 -5 57 53 57 0 -72 8 02/27/2026 11:45 PM 50361
67516 13.7 3.77 -5 58 53 57 0 -71 8 02/27/2026 11:30 PM 50360
67515 13.7 3.77 -5 58 53 58 0 -71 8 02/27/2026 11:15 PM 50359
67514 13.7 3.77 -5 59 52 59 0 -71 8 02/27/2026 11:00 PM 50358
67513 13.7 3.77 -5 59 52 60 0 -70 9 02/27/2026 10:45 PM 50357
67512 13.7 3.77 -5 60 52 60 0.1 -71 8 02/27/2026 10:30 PM 50356
67511 13.7 3.78 -5 59 53 61 0 -71 9 02/27/2026 10:15 PM 50355
67510 13.7 3.78 -5 60 53 61 0 -71 8 02/27/2026 10:00 PM 50354
67509 13.7 3.78 -5 60 53 61 0 -70 8 02/27/2026 09:45 PM 50353
67508 13.7 3.61 -5 60 53 61 0 -71 8 02/27/2026 09:30 PM 50352
67507 13.7 3.61 -5 61 53 61 0 -70 9 02/27/2026 09:15 PM 50351
67506 13.6 3.61 -5 61 53 62 0 -71 8 02/27/2026 09:00 PM 50350
67505 13.7 3.61 -5 61 53 62 0.1 -73 8 02/27/2026 08:45 PM 50349
67504 13.6 3.78 -5 61 53 62 0 -73 8 02/27/2026 08:30 PM 50348
67503 13.7 3.79 -5 61 54 61 0 -73 9 02/27/2026 08:15 PM 50347
67502 13.7 3.62 -5 61 54 62 0 -73 8 02/27/2026 08:00 PM 50346
67501 13.6 3.62 -5 62 54 62 0 -73 8 02/27/2026 07:45 PM 50345
67500 13.7 3.62 -5 63 54 65 0 -73 9 02/27/2026 07:30 PM 50344